TimeCDT,TemperatureF,Dew PointF,Humidity,Sea Level PressureIn,VisibilityMPH,Wind Direction,Wind SpeedMPH,Gust SpeedMPH,PrecipitationIn,Events,Conditions,WindDirDegrees,DateUTC
12:15 AM,63.9,63.1,97,29.73,10.0,Calm,Calm,-,N/A,,Overcast,0,2013-09-20 05:15:00
12:35 AM,63.7,63.0,97,29.72,10.0,WNW,3.5,-,N/A,Rain,Light Rain,290,2013-09-20 05:35:00
12:55 AM,63.9,63.0,97,29.71,10.0,WNW,3.5,-,N/A,,Light Drizzle,290,2013-09-20 05:55:00
1:15 AM,63.9,63.1,97,29.71,10.0,West,3.5,-,N/A,,Overcast,270,2013-09-20 06:15:00
1:35 AM,63.9,63.1,97,29.72,10.0,West,4.6,-,N/A,,Overcast,260,2013-09-20 06:35:00
1:55 AM,63.9,63.1,97,29.72,7.0,Calm,Calm,-,N/A,,Overcast,0,2013-09-20 06:55:00
2:15 AM,63.9,63.1,97,29.72,7.0,Calm,Calm,-,N/A,,Overcast,0,2013-09-20 07:15:00
2:35 AM,63.9,63.0,97,29.72,10.0,West,3.5,-,N/A,,Overcast,260,2013-09-20 07:35:00
2:55 AM,63.7,62.6,96,29.72,10.0,Calm,Calm,-,N/A,,Overcast,0,2013-09-20 07:55:00
3:15 AM,63.5,62.1,95,29.71,10.0,Calm,Calm,-,N/A,,Overcast,0,2013-09-20 08:15:00
3:35 AM,63.0,62.1,97,29.72,10.0,Calm,Calm,-,N/A,,Overcast,0,2013-09-20 08:35:00
3:55 AM,62.6,61.5,96,29.72,10.0,WSW,3.5,-,N/A,,Overcast,250,2013-09-20 08:55:00
4:15 AM,62.6,61.0,94,29.72,10.0,WSW,3.5,-,N/A,,Overcast,250,2013-09-20 09:15:00
4:35 AM,61.9,60.4,95,29.73,10.0,Calm,Calm,-,N/A,,Overcast,0,2013-09-20 09:35:00
4:55 AM,61.3,59.9,95,29.71,10.0,West,3.5,-,N/A,,Overcast,280,2013-09-20 09:55:00
5:15 AM,61.0,59.4,94,29.71,10.0,Calm,Calm,-,N/A,,Overcast,0,2013-09-20 10:15:00
5:35 AM,60.8,59.0,94,29.71,10.0,West,3.5,-,N/A,,Overcast,260,2013-09-20 10:35:00
5:55 AM,60.4,58.5,93,29.73,10.0,West,4.6,-,N/A,,Overcast,270,2013-09-20 10:55:00
6:15 AM,59.9,58.5,95,29.74,10.0,WSW,5.8,-,N/A,,Overcast,250,2013-09-20 11:15:00
6:35 AM,59.9,58.3,94,29.75,10.0,West,5.8,-,N/A,,Overcast,270,2013-09-20 11:35:00
6:55 AM,59.9,57.9,93,29.75,10.0,WNW,5.8,-,N/A,,Overcast,290,2013-09-20 11:55:00
7:15 AM,59.4,57.0,92,29.72,10.0,North,4.6,-,N/A,Rain,Light Rain,350,2013-09-20 12:15:00
7:35 AM,59.0,57.0,93,29.72,10.0,Calm,Calm,-,N/A,,Mostly Cloudy,0,2013-09-20 12:35:00
7:55 AM,58.5,57.2,96,29.74,10.0,WSW,4.6,-,N/A,,Scattered Clouds,240,2013-09-20 12:55:00
8:15 AM,58.3,57.2,96,29.74,10.0,WSW,3.5,-,N/A,,Mostly Cloudy,250,2013-09-20 13:15:00
8:35 AM,58.1,57.2,97,29.74,10.0,WSW,3.5,-,N/A,,Mostly Cloudy,240,2013-09-20 13:35:00
8:55 AM,59.4,57.7,94,29.75,10.0,WSW,3.5,-,N/A,,Overcast,250,2013-09-20 13:55:00
9:15 AM,60.1,56.5,88,29.75,10.0,West,8.1,-,N/A,,Overcast,280,2013-09-20 14:15:00
9:35 AM,59.9,56.3,88,29.76,10.0,WNW,6.9,-,N/A,,Overcast,290,2013-09-20 14:35:00
9:55 AM,60.3,55.6,85,29.76,10.0,West,5.8,-,N/A,,Overcast,270,2013-09-20 14:55:00
10:15 AM,59.9,54.9,83,29.77,10.0,WNW,3.5,-,N/A,,Overcast,290,2013-09-20 15:15:00
10:35 AM,59.5,55.4,86,29.77,10.0,West,4.6,-,N/A,,Overcast,260,2013-09-20 15:35:00
10:55 AM,59.4,54.5,84,29.77,10.0,WSW,5.8,-,N/A,,Overcast,250,2013-09-20 15:55:00
11:15 AM,59.9,55.2,84,29.76,10.0,WSW,4.6,-,N/A,,Overcast,240,2013-09-20 16:15:00
11:35 AM,62.4,55.2,77,29.76,10.0,WSW,8.1,-,N/A,,Mostly Cloudy,250,2013-09-20 16:35:00
11:55 AM,60.8,54.7,80,29.76,10.0,WSW,8.1,-,N/A,,Overcast,250,2013-09-20 16:55:00
12:15 PM,63.3,56.1,77,29.75,10.0,SW,10.4,-,N/A,,Mostly Cloudy,230,2013-09-20 17:15:00
12:35 PM,60.3,54.3,81,29.75,10.0,NW,5.8,-,N/A,Rain,Light Rain,310,2013-09-20 17:35:00
12:55 PM,61.7,55.9,81,29.75,4.0,WNW,9.2,-,0.06,Rain,Heavy Rain,290,2013-09-20 17:55:00
1:15 PM,58.5,56.5,93,29.75,10.0,West,4.6,-,N/A,Rain,Light Rain,260,2013-09-20 18:15:00
1:35 PM,59.0,56.3,91,29.75,10.0,West,5.8,-,N/A,,Overcast,260,2013-09-20 18:35:00
1:55 PM,58.1,54.7,88,29.76,10.0,West,6.9,-,N/A,,Overcast,270,2013-09-20 18:55:00
2:15 PM,58.3,54.3,87,29.76,10.0,West,9.2,-,N/A,,Overcast,280,2013-09-20 19:15:00
2:35 PM,59.5,54.0,82,29.76,10.0,WNW,10.4,16.1,N/A,,Overcast,300,2013-09-20 19:35:00
2:55 PM,59.9,53.2,79,29.76,10.0,WNW,6.9,-,N/A,,Overcast,300,2013-09-20 19:55:00
3:15 PM,59.9,52.7,77,29.76,10.0,NW,8.1,-,N/A,,Overcast,320,2013-09-20 20:15:00
3:35 PM,60.6,51.8,73,29.76,10.0,NW,8.1,-,N/A,,Mostly Cloudy,320,2013-09-20 20:35:00
3:55 PM,58.6,51.1,76,29.76,10.0,NW,5.8,-,N/A,,Overcast,320,2013-09-20 20:55:00
4:15 PM,57.9,51.1,78,29.77,7.0,WNW,6.9,18.4,N/A,Rain,Rain,300,2013-09-20 21:15:00
4:35 PM,56.5,52.7,87,29.78,10.0,West,5.8,-,N/A,,Overcast,270,2013-09-20 21:35:00
4:55 PM,55.8,50.7,83,29.79,10.0,NW,6.9,-,N/A,,Overcast,320,2013-09-20 21:55:00
5:15 PM,56.7,51.1,82,29.79,10.0,NW,10.4,-,N/A,,Mostly Cloudy,310,2013-09-20 22:15:00
5:35 PM,55.8,51.8,87,29.79,10.0,NNW,4.6,-,N/A,,Mostly Cloudy,340,2013-09-20 22:35:00
5:55 PM,55.6,51.8,87,29.79,10.0,NW,4.6,-,N/A,,Overcast,320,2013-09-20 22:55:00
6:15 PM,55.4,50.9,85,29.80,10.0,NW,3.5,-,N/A,,Overcast,310,2013-09-20 23:15:00
6:35 PM,55.4,50.7,84,29.80,10.0,NW,3.5,-,N/A,,Overcast,310,2013-09-20 23:35:00
6:55 PM,54.9,50.0,84,29.80,10.0,Calm,Calm,-,N/A,,Overcast,0,2013-09-20 23:55:00
7:15 PM,54.5,49.5,83,29.80,10.0,NW,4.6,-,N/A,,Overcast,310,2013-09-21 00:15:00
7:35 PM,54.0,49.6,85,29.81,10.0,Calm,Calm,-,N/A,,Overcast,0,2013-09-21 00:35:00
7:55 PM,53.1,48.4,84,29.82,10.0,Calm,Calm,-,N/A,,Mostly Cloudy,0,2013-09-21 00:55:00
8:15 PM,52.7,47.7,83,29.82,10.0,Calm,Calm,-,N/A,,Mostly Cloudy,0,2013-09-21 01:15:00
8:35 PM,51.6,47.3,85,29.83,10.0,Calm,Calm,-,N/A,,Mostly Cloudy,0,2013-09-21 01:35:00
8:55 PM,50.4,47.1,89,29.83,10.0,Calm,Calm,-,N/A,,Scattered Clouds,0,2013-09-21 01:55:00
9:15 PM,49.1,47.1,93,29.83,10.0,Calm,Calm,-,N/A,,Scattered Clouds,0,2013-09-21 02:15:00
9:35 PM,48.6,46.6,93,29.84,10.0,West,3.5,-,N/A,,Scattered Clouds,260,2013-09-21 02:35:00
9:55 PM,48.2,46.4,93,29.84,10.0,Calm,Calm,-,N/A,,Scattered Clouds,0,2013-09-21 02:55:00
10:15 PM,47.5,45.9,94,29.84,10.0,West,3.5,-,N/A,,Scattered Clouds,280,2013-09-21 03:15:00
10:35 PM,47.3,45.1,92,29.85,10.0,Calm,Calm,-,N/A,,Clear,0,2013-09-21 03:35:00
10:55 PM,46.9,44.8,92,29.85,10.0,WNW,3.5,-,N/A,,Mostly Cloudy,290,2013-09-21 03:55:00
11:15 PM,47.3,44.8,91,29.85,10.0,Calm,Calm,-,N/A,,Overcast,0,2013-09-21 04:15:00
11:35 PM,46.4,44.6,93,29.85,10.0,West,3.5,-,N/A,,Scattered Clouds,260,2013-09-21 04:35:00
11:55 PM,45.7,44.1,94,29.85,10.0,Calm,Calm,-,N/A,,Clear,0,2013-09-21 04:55:00